{"data":{"norad_id":64075,"epoch":"2026-05-24T17:07:33.005280Z","epoch_age_seconds":96199,"freshness":"FRESH","line1":"1 64075U 25107M   26144.71357645  .00153570  00000+0  11782-2 0  9993","line2":"2 64075  42.9994   0.0680 0002750 229.5471 130.5157 15.70839435 59257","mean_motion":15.70839435,"eccentricity":0.000275,"inclination_deg":42.9994,"raan_deg":0.068,"arg_perigee_deg":229.5471,"mean_anomaly_deg":130.5157,"bstar":0.0011782,"rev_number":5925,"period_min":91.670731451939,"perigee_km":354.64465218377,"apogee_km":358.34870070581,"semimajor_km":6734.6336764448,"source":"CELESTRAK","updated_at":"2026-05-25T13:38:20.259875Z"}}